Terug naar catalogus

STARLINK-5914

ActiefCommunicatieVLEO
NORAD 55941·PAYLOAD·🇺🇸 United States

Gelanceerd Mar 17, 2023 vanaf Vandenberg Space Force Base

Loading…

Volgende Passages (komende 24 uur)

TLE

VersSource: CelesTrak SupGP

Epoch: Sep 15, 2026, 02:51 UTC

1 55941C 23037AD  26258.11923611  .00034270  00000+0  28718-2 0  2587
2 55941  70.0015 166.9838 0002878 273.5341   2.4248 14.98316010    14

Volg STARLINK-5914 in realtime met AllMySat

Download on the App Store